sat.trackr.live / text

‹ back to catalog

STARLINK-36941

NORAD 67991 · 2026-039F

PAYLOAD ACTIVE UNKNOWN

§ Identity

Operator
Country
US
Launch date
2026-02-27
Launch site
AFETR
Launch vehicle
Mass (kg)
RCS (m²)

Purposes: comms

External: N2YO · Heavens-Above · Gunter

§ Orbital elements

Epoch: 2026-05-24T22:37:41.839104Z

Period
94.27 min
Inclination
43.0027°
Eccentricity
0.0001494
Mean motion
15.27587006 rev/d
Perigee alt
482.0 km
Apogee alt
484.1 km
Semi-major
6,861.2 km
B*
5.4271e-4
RAAN
338.4649°
Arg perigee
274.4559°
Mean anomaly
85.6121°
Rev number
1,336

§ Raw data

STARLINK-369411 67991U 26039F   26144.94284536  .00014705  00000+0  54271-3 0  99982 67991  43.0027 338.4649 0001494 274.4559  85.6121 15.27587006 13368

JSON: /api/v1/satellites/67991 · /tle

For live sub-satellite position, see the globe view (requires WebGL).

§ Visibility from observer

Set your observer location to see the next 7 days of passes ≥ 10°. The values pass through the URL so the page stays shareable.

No JS? Fill the form by hand. The geolocation button needs JavaScript.